Simultaneous Nadir Overpasses (SNOs) Predictions

Prediction of SNOs between NOAA-19 and METOP-C Satellite Orbit:

Table of predicted SNOs for the next 14.0 days since TLE Epoch: 3/1/2025
Index Date (NOAA-19) Time (NOAA-19) Lat,Lon (NOAA-19) SZA (NOAA-19 ) Date (METOP-C) Time (METOP-C) Lat,Lon (METOP-C) SZA (METOP-C ) Distance(km) Time Diff (sec)
1 03/05/2025 19:49:16 -78.85, 154.66 84.56 03/05/2025 19:50:28 -78.84, 154.73 84.49 1.76 72
2 03/05/2025 20:40:09 78.68, -36.90 95.66 03/05/2025 20:41:05 78.69, -36.97 95.69 1.85 56
3 03/05/2025 21:31:07 -78.65, 130.58 84.32 03/05/2025 21:31:44 -78.64, 130.68 84.27 2.51 37
4 03/05/2025 22:22:00 78.47, -61.01 95.90 03/05/2025 22:22:21 78.48, -61.05 95.91 0.99 21
5 03/05/2025 23:12:56 -78.36, 106.91 83.99 03/05/2025 23:12:58 -78.35, 107.03 83.96 3.26 2
6 03/06/2025 00:03:49 78.18, -84.74 96.23 03/06/2025 00:03:35 78.18, -84.74 96.22 0.07 14
7 03/06/2025 00:54:42 -77.99, 83.59 83.56 03/06/2025 00:54:10 -78.01, 83.50 83.61 2.55 32
8 03/06/2025 01:45:37 77.88,-108.54 96.56 03/06/2025 01:44:48 77.88,-108.51 96.53 0.89 49



Historial Predications of SNOs between NOAA-19 and METOP-C
